Flag for Bulgaria Weather past 2 weeks in Plovdiv, Bulgaria

Now
91 °F

Hot.


Feels Like: 91 °F
Forecast: 60 / 97 °F
Wind: 6 mph from East

Location: Plovdiv Airport

Current Time: Sep 2, 2015 at 6:47:07 PM

Latest Report: Sep 2, 2015 at 6:00 PM


Visibility: N/A

Pressure: 29.80 "Hg

Humidity: 34%

Dew point: 59 °F

Location of PlovdivLocation

Historic Weather in Plovdiv — Graph

°F

Plovdiv temperature yesterday

Maximum temperature yesterday: 90 °F (at 4:30 PM)
Minimum temperature yesterday: 61 °F (at 7:30 AM)
Average temperature yesterday: 76 °F

Past Weeks' High & Low Weather Summary

 TemperatureHumidityPressure
High93 °F (Aug 30, 3:00 PM)100% (Aug 20, 5:30 AM)30.21 "Hg (Aug 20, 5:30 AM)
Low55 °F (Aug 28, 5:30 AM)22% (Aug 28, 4:30 PM)29.80 "Hg (Sep 2, 5:00 PM)
Average73 °F63%30.06 "Hg
* Reported Aug 18 5:00 PM — Sep 2 5:30 PM, Plovdiv, Weather by CustomWeather, © 2015

Note: Actual official high and low records may vary slightly from our data, if they occured in-between our weather recording intervals... More about our weather records

Advertising

Plovdiv weather history for previous 24 hours

 ConditionsComfort  
Time TempWeatherWind HumidityBarometerVisibility
5:30 PM
Wed, Sep 2
91 °FHot.5 mph36%29.80 "HgN/A
5:00 PM91 °FHot.6 mph38%29.80 "HgN/A
4:30 PM91 °FHot.7 mph36%29.83 "HgN/A
4:00 PM91 °FHot.6 mph34%29.83 "HgN/A
3:30 PM91 °FHot.7 mph34%29.83 "HgN/A
3:00 PM90 °FHot.5 mph36%29.83 "HgN/A
2:30 PM90 °FHot.5 mph36%29.86 "HgN/A
2:00 PM88 °FPleasantly warm.5 mph38%29.86 "HgN/A
1:30 PM88 °FPleasantly warm.5 mph38%29.86 "HgN/A
1:00 PM86 °FPleasantly warm.3 mph38%29.89 "HgN/A
12:30 PM84 °FWarm.6 mph43%29.89 "HgN/A
12:00 PM81 °FWarm.3 mph45%29.89 "HgN/A
11:30 AM79 °FWarm.6 mph51%29.89 "HgN/A
11:00 AM77 °FWarm.6 mph47%29.92 "HgN/A
10:30 AM75 °FMild.5 mph54%29.92 "HgN/A
10:00 AM72 °FMild.6 mph57%29.92 "HgN/A
9:30 AM72 °FMild.5 mph61%29.92 "HgN/A
9:00 AM70 °FMild.5 mph60%29.92 "HgN/A
8:30 AM66 °FMild.2 mph73%29.92 "HgN/A
8:00 AM63 °FMild.3 mph83%29.92 "HgN/A
7:00 AM59 °FCool.6 mph88%29.92 "HgN/A
6:30 AM61 °FCool.6 mph83%29.92 "HgN/A
6:00 AM61 °FCool.6 mph83%29.92 "HgN/A
5:30 AM63 °FMild.3 mph73%29.92 "HgN/A
5:00 AM64 °FMild.5 mph68%29.92 "HgN/A
4:30 AM64 °FMild.6 mph64%29.95 "HgN/A
4:00 AM68 °FMild.10 mph53%29.92 "HgN/A
3:30 AM68 °FMild.7 mph56%29.95 "HgN/A
3:00 AM72 °FMild.12 mph47%29.95 "HgN/A
2:30 AM70 °FMild.12 mph50%29.95 "HgN/A
2:00 AM73 °FMild.14 mph47%29.95 "HgN/A
12:30 AM73 °FMild.10 mph50%29.95 "HgN/A
12:00 AM72 °FMild.7 mph53%29.95 "HgN/A
11:30 PM
Tue, Sep 1
68 °FMild.6 mph60%29.95 "HgN/A
11:00 PM70 °FMild.6 mph57%29.95 "HgN/A
10:30 PM73 °FMild.3 mph50%29.95 "HgN/A
10:00 PM72 °FMild.3 mph57%29.92 "HgN/A
9:30 PM73 °FMild.5 mph53%29.92 "HgN/A
9:00 PM73 °FMild.3 mph53%29.92 "HgN/A
8:30 PM75 °FMild.2 mph47%29.92 "HgN/A
8:00 PM79 °FWarm.5 mph45%29.92 "HgN/A
7:30 PM84 °FPleasantly warm.5 mph35%29.92 "HgN/A
7:00 PM86 °FPleasantly warm.7 mph31%29.92 "HgN/A
6:30 PM88 °FPleasantly warm.8 mph25%29.92 "HgN/A
6:00 PM90 °FHot.12 mph24%29.92 "HgN/A
Weather by CustomWeather, © 2015

See weather overviewHow to use our weather pages